Regional Weather Roundup
Issued by NWS

Home | Current Version | Previous Version | Text Only | Print | Product List | Glossary On
Versions: 1 2 3 4 5 6 7 8 9 10 11 12 13 14 15 16 17 18 19 20 21 22 23 24 25 26 27 28 29 30 31 32 33 34 35 36 37 38 39 40 41 42 43 44 45 46 47 48 49 50
000
ASUS43 KDMX 261007
RWRIA

WEATHER ROUNDUP FOR IOWA
NATIONAL WEATHER SERVICE DES MOINES IA
400 AM CST MON JAN 26 2015

NOTE: "FAIR" INDICATES FEW OR NO CLOUDS BELOW 12,000 FEET WITH NO
SIGNIFICANT WEATHER AND/OR OBSTRUCTIONS TO VISIBILITY.

* - THESE STATIONS ARE NOT NWS STATIONS...THUS NOT UNDER NWS
QUALITY CONTROL.  THEY ALSO DO NOT REPORT WEATHER SUCH
AS PRECIPITATION OR FOG.

IAZ001>003-012>014-020>022-031>034-043>046-261100-
   NORTHWEST IOWA

CITY           SKY/WX    TMP DP  RH WIND       PRES   REMARKS
CARROLL *      CLOUDY    32  30  93 SW13G22   29.95R WCI  22
CHEROKEE *     CLOUDY    32  32 100 S9        29.90F WCI  24
DENISON *      PTCLDY    30  30 100 SW5       29.94R WCI  25
LE MARS *      CLEAR     32  32 100 S9        29.87F WCI  24
ORANGE CITY *  CLEAR     32  30  93 S10       29.85F WCI  24
SHELDON *      PTCLDY    32  32 100 S13       29.83F WCI  22
SIOUX CITY     CLEAR     29  26  89 E7        29.91F WCI  22
SPENCER        CLOUDY    33  30  88 SW16      29.85F WCI  23
STORM LAKE *   CLOUDY    32  30  93 SW10      29.92S WCI  24
$$

IAZ055>058-069>071-079>083-090>094-261100-
   SOUTHWEST IOWA

CITY           SKY/WX    TMP DP  RH WIND       PRES   REMARKS
ATLANTIC *     MOCLDY    28  27  93 S13       29.95F WCI  18
AUDUBON *      CLEAR     28  27  93 SW7       29.97R WCI  21
CLARINDA *     CLEAR     25  25 100 S6        30.03F WCI  18
COUNCIL BLFS * CLEAR     30  30 100 SW10      29.93F WCI  21
CRESTON *      CLOUDY    30  28  93 SW14      29.96F WCI  20
HARLAN  *      CLEAR     27  27 100 S7        29.98F WCI  19
LAMONI         CLOUDY    30  27  88 SW10      30.00F WCI  21
RED OAK *      CLEAR     23  23 100 S6        29.99F WCI  16
SHENANDOAH *   CLEAR     25  25 100 SW6       30.01F WCI  18
$$

IAZ047>049-059>061-072>074-084-261100-
   CENTRAL IOWA

CITY           SKY/WX    TMP DP  RH WIND       PRES   REMARKS
AMES           CLOUDY    30  26  85 SW7       29.96R WCI  23
ANKENY *       CLOUDY    32  27  80 SW7       29.97F WCI  26
CHARITON *     CLOUDY    30  27  86 SW7G14    29.97F WCI  23
DES MOINES     CLOUDY    32  25  75 SW7       29.97F WCI  26
GRINNELL*      CLOUDY    28  27  93 S6        29.95F WCI  22
KNOXVILLE *    CLOUDY    30  27  86 SW3       29.97F
MARSHALLTOWN   CLOUDY    29  25  85 SW9       29.95F WCI  20
PELLA *        CLOUDY    30  27  86 CALM      29.99F
PERRY *          N/A     32  30  93 SW7       29.97R WCI  26
$$

IAZ004>006-015-016-023>025-035-036-261100-
   NORTH CENTRAL IOWA

CITY           SKY/WX    TMP DP  RH WIND       PRES   REMARKS
ALGONA *       CLOUDY    32  32 100 S15       29.89F WCI  22
CLARION *      CLOUDY    30  30 100 SW9       29.96R WCI  22
ESTHERVILLE    CLOUDY    30  29  96 S10       29.87F WCI  21
FORT DODGE *   CLOUDY    30  27  86 SW7       29.96R WCI  23
MASON CITY     CLOUDY    28  24  85 SW9       29.94R WCI  19
FOREST CITY *  CLOUDY    30  27  86 S9        29.90F WCI  22
IOWA FALLS *   CLOUDY    30  27  86 SW10      29.97R WCI  21
$$

IAZ007>011-017>019-026>030-037>042-050>054-066-261100-
   NORTHEAST IOWA

CITY           SKY/WX    TMP DP  RH WIND       PRES   REMARKS
CEDAR RAPIDS   CLOUDY    21  16  81 S8        29.97F WCI  11
CHARLES CITY * CLOUDY    28  27  93 SW8       29.95R WCI  20
CLINTON *        N/A     10   7  85 CALM      30.03S
DECORAH *      CLOUDY    23  18  80 S7        29.93R WCI  15
DUBUQUE        CLOUDY    15  12  88 S3        29.96F
MONTICELLO *   CLOUDY    21  16  79 CALM      29.97F
OELWEIN *      CLOUDY    23  18  80 S9        29.96S WCI  13
WATERLOO       CLOUDY    24  21  88 S6        29.98F WCI  17
$$

IAZ064-065-067-068-078-261100-
   EAST CENTRAL IOWA

CITY           SKY/WX    TMP DP  RH WIND       PRES   REMARKS
DAVENPORT      PTCLDY    13   8  81 W5        30.02F WCI   5
IOWA CITY      CLOUDY    21  15  78 S7        30.01F WCI  12
MT. PLEASANT * CLOUDY    23  18  80 CALM      30.03S
MUSCATINE *    CLOUDY    21  16  79 CALM      30.03F
QUAD CITIES    PTCLDY    14  10  84 SW3       30.02F
$$

IAZ062-063-075>077-085>089-095>099-261100-
   SOUTHEAST IOWA

CITY           SKY/WX    TMP DP  RH WIND       PRES   REMARKS
BURLINGTON     CLOUDY    23  17  78 CALM      30.02F
FAIRFIELD *    CLOUDY    27  21  80 SE5       30.00F WCI  21
FORT MADISON * CLOUDY    25  19  80 CALM      30.03S
KEOKUK *       CLOUDY    25  21  86 CALM      30.03R
OSKALOOSA *    CLOUDY    28  25  86 S3        29.98F
CENTERVILLE *  CLOUDY    30  28  93 S7        29.99F WCI  23
OTTUMWA        CLOUDY    27  25  92 S5        29.98F WCI  22
WASHINGTON *   CLOUDY    23  21  93 S5        30.02S WCI  17
$$

ABBREVIATIONS USED IN REMARKS
   TC - TEMPERATURES IN CELSIUS
  WCI - WIND CHILL INDEX
   HX - HEAT INDEX
  VSB - VISIBILITY
$$



USA.gov is the U.S. government's official web portal to all federal, state and local government web resources and services.